[[{"header":{"parameterUnit":"m.s-1","parameterCategory":1,"la1":30.2991,"la2":30.254,"lo1":-89.0895,"lo2":-89.0444,"dy":0.0017,"dx":0.0017,"nx":28,"ny":28,"refTime":"2024-05-23T21:00:00:Z","depth":0,"parameterNumber":2,"parameterNumberName":"U-component_of_WINDS"},"data":[0,0,0,0,0,0,0,0,0,0,0,0,0,0,0,0,0,0,0,0,0,0,0,0,0,0,0,0,0,0,0,0,0,0,0,0,0,0,0,0,0,0,0,0,0,0,0,0,0,0,0,0,0,0,0,0,0,0,1.7041,1.7041,0,1.7057,1.7057,1.7058,1.7012,1.7011,1.7009,1.7008,1.7023,1.7025,1.7026,0,0,0,0,0,0,0,0,0,0,0,0,0,1.6966,1.6968,1.7041,1.7041,1.7041,1.7057,1.7057,1.7058,1.7012,1.7011,1.7009,1.7007,1.7022,1.7024,1.7026,0,0,0,0,0,0,0,0,0,0,0,0,0,1.6992,1.6969,1.7041,1.702,1.7019,1.7057,1.7057,1.7058,1.7013,1.7011,1.7008,1.7006,1.7022,1.7024,1.7027,1.7085,0,0,1.7035,1.7036,0,0,0,0,0,0,0,0,1.6991,1.6995,1.7023,1.7022,1.702,1.703,1.7037,1.7067,1.7013,1.7015,1.7008,1.7005,1.7027,1.7029,1.7037,1.7086,1.7086,1.7035,1.7036,1.7037,1.7038,0,0,0,0,0,0,0,1.6989,1.6994,1.7047,1.7024,1.7022,1.7009,1.7011,1.7042,1.7033,1.7015,1.7011,1.7014,1.7026,1.7034,1.7037,1.7086,1.7035,1.7037,1.7039,1.704,1.7182,1.7184,0,0,0,0,0,0,1.699,1.6993,1.7047,1.7048,1.7,1.7013,1.7014,1.7029,1.7032,1.7031,1.7016,1.7012,1.7031,1.7034,1.7037,1.7104,1.7037,1.704,1.7041,1.7179,1.7182,1.7185,0,0,0,0,0,0,1.6989,1.6996,1.7046,1.7019,1.7025,1.7016,1.7033,1.7031,1.7039,1.7033,1.7031,1.7027,1.7029,1.7033,1.7073,1.7104,1.7041,1.7043,1.7177,1.718,1.7183,1.7238,0,0,0,0,0,0,1.6987,1.6995,1.7018,1.702,1.7027,1.7083,1.7035,1.7033,1.7044,1.7039,1.7043,1.7041,1.7028,1.7069,1.7076,1.7106,1.7045,1.7174,1.7178,1.7182,1.7234,1.7243,1.7251,0,0,0,0,0,1.6985,1.7033,1.702,1.7026,1.7055,1.7084,1.7088,1.7073,1.7047,1.7069,1.7065,1.7041,1.71,1.7074,1.708,1.7112,1.7172,1.7177,1.7182,1.723,1.7241,1.7251,0,0,0,0,0,0,1.7034,1.7033,1.7018,1.7069,1.7077,1.7077,1.7104,1.7085,1.7101,1.7095,1.7075,1.7076,1.7119,1.712,1.7091,1.7167,1.7131,1.7138,1.7165,1.7176,1.7185,1.7183,1.7048,0,0,0,0,0,1.7051,1.7076,1.7073,1.7118,1.7123,1.7113,1.7125,1.7113,1.712,1.7124,1.7122,1.713,1.715,1.7163,1.7181,1.7234,1.7233,1.7259,1.7268,1.7275,1.728,1.7306,1.7317,1.7201,1.7201,1.7201,0,0,1.7086,1.7088,1.7105,1.7128,1.7133,1.7158,1.7116,1.7145,1.7163,1.7128,1.7164,1.7164,1.7171,1.7217,1.7237,1.7219,1.7312,1.7281,1.7287,1.7288,1.7313,1.7324,1.7333,1.7205,1.7204,1.7203,0,0,1.7162,1.7167,1.7204,1.721,1.7218,1.7211,1.722,1.7223,1.7221,1.7258,1.7231,1.7252,1.7288,1.7293,1.73,1.7378,1.7356,1.7385,1.743,1.7455,1.7464,1.7472,1.7498,1.7508,1.739,1.739,1.7391,0,1.7203,1.7241,1.7225,1.7255,1.7265,1.7235,1.7272,1.7278,1.7292,1.7299,1.7278,1.7321,1.7324,1.737,1.7389,1.7396,1.7405,1.7383,1.7465,1.7472,1.7479,1.7504,1.7514,1.7394,1.7393,1.7393,1.7393,0,1.7291,1.7318,1.7346,1.736,1.7374,1.7407,1.7395,1.7411,1.7397,1.7392,1.7429,1.7431,1.7449,1.7459,1.7446,1.7503,1.7491,1.7468,1.7431,1.7494,1.7516,1.7526,1.7398,1.7397,1.7396,1.7395,0,0,1.7398,1.7402,1.7413,1.7418,1.7425,1.7444,1.7476,1.7493,1.7506,1.7517,1.7541,1.7572,1.755,1.7559,1.7546,1.7569,1.7628,1.7543,1.7543,1.7557,1.7688,1.7704,1.7715,1.7614,1.7616,1.7617,1.7687,0,1.7471,1.7525,1.7511,1.7564,1.7587,1.7559,1.7586,1.7593,1.7589,1.7607,1.7602,1.7623,1.7595,1.7599,1.7621,1.7616,1.7654,1.7611,1.7635,1.7636,1.7632,1.7727,1.7744,1.781,1.7696,1.7697,1.7699,0,1.7563,1.7577,1.7633,1.7634,1.7644,1.7668,1.7682,1.7701,1.7707,1.7703,1.7712,1.7695,1.7724,1.7689,1.7728,1.77,1.7709,1.7708,1.771,1.771,1.767,1.7728,1.783,1.784,1.7713,1.7711,1.771,0,1.7632,1.7665,1.7702,1.7708,1.7712,1.7729,1.7732,1.7736,1.7747,1.7759,1.7766,1.7782,1.779,1.7802,1.7789,1.7764,1.783,1.7793,1.7825,1.7826,1.7839,1.7838,1.7942,1.7848,1.7848,1.7848,1.7848,0,1.7714,1.7749,1.7733,1.7756,1.7793,1.7777,1.7814,1.7813,1.7818,1.7838,1.7816,1.7836,1.7818,1.7837,1.7827,1.786,1.7864,1.786,1.7857,1.7861,1.7861,1.7865,1.786,1.7851,1.785,1.785,1.7849,0,1.7797,1.7788,1.7826,1.7827,1.7828,1.7855,1.7855,1.7875,1.787,1.7897,1.7902,1.7893,1.7913,1.7902,1.7923,1.7916,1.7959,1.795,1.7957,1.7954,1.7985,1.7982,1.8094,1.8108,1.8007,1.8008,1.8009,0,1.7849,1.7874,1.7878,1.789,1.7894,1.7915,1.7926,1.7911,1.7923,1.7932,1.7951,1.797,1.7983,1.8017,1.8012,1.8027,1.8017,1.8056,1.8019,1.8023,1.8015,1.8013,1.8015,1.8063,1.8064,1.8065,1.8066,0,1.794,1.7935,1.7952,1.7967,1.7981,1.7993,1.8002,1.8014,1.7999,1.8014,1.8034,1.8045,1.8066,1.8084,1.8097,1.8099,1.8079,1.8077,1.8085,1.8089,1.809,1.8088,1.7974,1.8074,1.8073,1.8073,1.8072,1.8072,1.8007,1.8028,1.8034,1.8053,1.8059,1.8068,1.8087,1.8084,1.8101,1.8117,1.8108,1.8131,1.8136,1.8152,1.8156,1.8173,1.8158,1.817,1.8172,1.8175,1.8178,1.809,1.8176,1.8176,1.8175,1.8175,1.8175,0,1.8096,1.8098,1.8116,1.813,1.8145,1.8127,1.8136,1.815,1.8171,1.8178,1.8192,1.8215,1.8232,1.8229,1.8244,1.8259,1.825,1.8263,1.8261,1.8261,1.8192,1.8183,1.827,1.827,1.827,1.827,1.827,1.827,1.8144,1.8178,1.8173,1.8209,1.8211,1.8234,1.8241,1.8249,1.8254,1.828,1.8295,1.8293,1.8295,1.831,1.8325,1.8323,1.8329,1.8345,1.834,1.8275,1.8266,1.8257,1.8248,1.8347,1.8347,1.8407,1.8407,1.8408]},{"header":{"parameterUnit":"m.s-1","parameterCategory":1,"la1":30.2991,"la2":30.254,"lo1":-89.0895,"lo2":-89.0444,"dy":0.0017,"dx":0.0017,"nx":28,"ny":28,"refTime":"2024-05-23T21:00:00:Z","depth":0,"parameterNumber":3,"parameterNumberName":"V-component_of_WINDS"},"data":[0,0,0,0,0,0,0,0,0,0,0,0,0,0,0,0,0,0,0,0,0,0,0,0,0,0,0,0,0,0,0,0,0,0,0,0,0,0,0,0,0,0,0,0,0,0,0,0,0,0,0,0,0,0,0,0,0,0,5.0661,5.0661,0,5.0708,5.0708,5.0709,5.0646,5.0644,5.0642,5.064,5.0683,5.0686,5.069,0,0,0,0,0,0,0,0,0,0,0,0,0,5.0512,5.0515,5.0661,5.0661,5.0662,5.0708,5.0708,5.0709,5.0647,5.0644,5.0641,5.0639,5.0682,5.0686,5.069,0,0,0,0,0,0,0,0,0,0,0,0,0,5.0569,5.0516,5.0661,5.0636,5.0635,5.0707,5.0708,5.0709,5.0647,5.0644,5.064,5.0637,5.0681,5.0686,5.069,5.0788,0,0,5.0705,5.0707,0,0,0,0,0,0,0,0,5.0566,5.0575,5.0639,5.0638,5.0636,5.0668,5.0672,5.0735,5.0648,5.0642,5.064,5.0636,5.0681,5.0685,5.0701,5.079,5.0792,5.0706,5.0709,5.0711,5.0712,0,0,0,0,0,0,0,5.0562,5.0572,5.0679,5.064,5.0639,5.0621,5.0626,5.0683,5.0679,5.0643,5.0638,5.0645,5.0679,5.0697,5.0702,5.0792,5.0706,5.071,5.0713,5.0715,5.0961,5.0964,0,0,0,0,0,0,5.0562,5.0569,5.0678,5.068,5.0592,5.0627,5.0632,5.0661,5.0679,5.0678,5.0648,5.0642,5.069,5.0696,5.0703,5.0817,5.0711,5.0715,5.0718,5.0957,5.0961,5.0965,0,0,0,0,0,0,5.0559,5.0572,5.0676,5.0624,5.0636,5.0633,5.0666,5.0664,5.0681,5.0683,5.0681,5.0667,5.0688,5.0696,5.0767,5.0817,5.0718,5.0722,5.0953,5.0958,5.0963,5.1046,0,0,0,0,0,0,5.0555,5.0571,5.061,5.0625,5.0639,5.0741,5.0669,5.0667,5.069,5.0683,5.07,5.07,5.0686,5.076,5.0772,5.0822,5.0726,5.0948,5.0955,5.0962,5.1039,5.1054,5.1066,0,0,0,0,0,5.055,5.063,5.0612,5.0625,5.0687,5.0744,5.0751,5.0735,5.0695,5.0732,5.0733,5.0699,5.081,5.0768,5.0781,5.0833,5.0945,5.0953,5.0961,5.1033,5.1051,5.1066,0,0,0,0,0,0,5.062,5.0632,5.0612,5.07,5.0722,5.0733,5.078,5.0755,5.0787,5.0778,5.0755,5.0759,5.0835,5.0841,5.0794,5.0927,5.0871,5.0882,5.0921,5.0938,5.0951,5.0948,5.073,0,0,0,0,0,5.0646,5.0693,5.07,5.0778,5.0789,5.0783,5.0807,5.0793,5.0813,5.0821,5.0827,5.0847,5.0886,5.0912,5.0948,5.1039,5.1041,5.1082,5.1095,5.1107,5.1116,5.1163,5.1181,5.0992,5.0992,5.0992,0,0,5.0699,5.0712,5.0743,5.0792,5.0807,5.0854,5.0791,5.0844,5.0878,5.0829,5.0896,5.0901,5.0921,5.1002,5.1038,5.101,5.1169,5.1117,5.1126,5.113,5.1173,5.1191,5.1207,5.0997,5.0996,5.0996,0,0,5.0821,5.0837,5.0902,5.0918,5.0941,5.0937,5.0952,5.0968,5.0969,5.1037,5.1,5.104,5.1108,5.1124,5.1141,5.1267,5.1237,5.1279,5.1351,5.1397,5.1412,5.1425,5.1469,5.1485,5.1289,5.1289,5.1289,0,5.0885,5.0956,5.0938,5.0994,5.1015,5.0974,5.1039,5.1055,5.1089,5.1104,5.1072,5.1156,5.1167,5.125,5.1281,5.1296,5.1312,5.1277,5.1411,5.1424,5.1436,5.1478,5.1494,5.1294,5.1294,5.1293,5.1293,0,5.1032,5.1082,5.1132,5.1166,5.1194,5.1253,5.1243,5.1272,5.1255,5.1253,5.1321,5.1332,5.1369,5.1388,5.1371,5.1469,5.145,5.1416,5.1358,5.146,5.1498,5.1514,5.1301,5.13,5.1298,5.1297,0,0,5.12,5.1224,5.1242,5.1256,5.1279,5.1316,5.1373,5.141,5.1435,5.146,5.1505,5.1564,5.1531,5.1551,5.1535,5.1576,5.1673,5.1535,5.1535,5.156,5.1779,5.1805,5.1824,5.1654,5.1657,5.1659,5.1777,0,5.1321,5.1421,5.1406,5.1502,5.1547,5.1507,5.1557,5.1575,5.1574,5.161,5.1608,5.165,5.1605,5.1616,5.1654,5.1654,5.1717,5.1645,5.1694,5.1696,5.169,5.1844,5.1872,5.1983,5.1792,5.1795,5.1797,0,5.1476,5.1506,5.1607,5.1621,5.1639,5.1684,5.1717,5.1753,5.1771,5.1767,5.1789,5.1766,5.182,5.1762,5.1837,5.1788,5.1807,5.181,5.1813,5.1817,5.1752,5.1851,5.2018,5.2035,5.182,5.1819,5.1817,0,5.1586,5.1653,5.1721,5.1735,5.1754,5.1786,5.1795,5.181,5.1833,5.1861,5.1875,5.1909,5.1927,5.1952,5.1938,5.1897,5.2014,5.1955,5.2011,5.2012,5.2037,5.2035,5.2209,5.2051,5.2051,5.205,5.205,0,5.1723,5.1786,5.1771,5.1814,5.1882,5.1863,5.1931,5.1935,5.1949,5.1989,5.1957,5.1995,5.1975,5.2011,5.2,5.2062,5.2071,5.2068,5.2064,5.2071,5.2071,5.2082,5.2074,5.2055,5.2054,5.2053,5.2052,0,5.1858,5.1851,5.1923,5.1935,5.1939,5.1989,5.1998,5.2036,5.2033,5.2085,5.2095,5.209,5.2131,5.2119,5.2163,5.2156,5.2234,5.2221,5.2228,5.2225,5.2281,5.2275,5.2467,5.2491,5.2318,5.232,5.2322,0,5.1945,5.1993,5.2009,5.2035,5.2047,5.2088,5.2112,5.2094,5.212,5.2144,5.2179,5.2217,5.2247,5.2314,5.2313,5.2346,5.2333,5.2397,5.2337,5.2342,5.2332,5.2329,5.2333,5.2409,5.2411,5.2413,5.2414,0,5.21,5.2094,5.213,5.2165,5.2194,5.222,5.2243,5.2265,5.2249,5.2278,5.2321,5.2344,5.2389,5.2427,5.2457,5.2464,5.2436,5.2433,5.2448,5.2454,5.2457,5.2455,5.226,5.2429,5.2427,5.2426,5.2425,5.2425,5.2213,5.2253,5.2271,5.2311,5.2327,5.2349,5.2385,5.2386,5.2422,5.2458,5.2445,5.2493,5.2508,5.2546,5.2557,5.2593,5.2568,5.259,5.2595,5.26,5.2607,5.2452,5.2599,5.2598,5.2598,5.2597,5.2597,0,5.2365,5.2375,5.2412,5.2446,5.2477,5.2449,5.2473,5.25,5.2543,5.2561,5.2591,5.2639,5.2675,5.2677,5.271,5.2739,5.2726,5.2748,5.2745,5.2747,5.2628,5.2611,5.2757,5.2757,5.2757,5.2757,5.2757,5.2757,5.2448,5.2514,5.251,5.2582,5.259,5.2638,5.2654,5.2673,5.2687,5.2742,5.2773,5.2774,5.2784,5.2818,5.285,5.2849,5.2862,5.2889,5.2883,5.2771,5.2756,5.274,5.2725,5.2892,5.2892,5.2999,5.3,5.3001]}]]